Regional Weather Roundup
Issued by NWS Wakefield, VA

Home | Current Version | Previous Version | Text Only | Print | Product List | Glossary On
Versions: 1 2 3 4 5 6 7 8 9 10 11 12 13 14 15 16 17 18 19 20 21 22 23 24 25 26 27 28 29 30 31 32 33 34 35 36 37 38 39 40 41 42 43 44 45 46 47 48 49 50
000
ASUS41 KAKQ 210314
RWRAKQ

REGIONAL WEATHER ROUNDUP
NATIONAL WEATHER SERVICE WAKEFIELD VA
1100 PM EDT MON APR 20 2015

Note: "fair" indicates few or no clouds below 12,000 feet with no
significant weather and/or obstructions to visibility. * = Denotes
station may not report precipitation (e.g., rain,snow,etc.),
thunder or fog.

VAZ042-051-052>054-056-210400-
NORTHERN VIRGINIA

CITY           SKY/WX    TMP DP  RH WIND       PRES   REMARKS
WASH NATIONAL  MOCLDY    65  57  75 S10       29.55S
DULLES         LGT RAIN  65  56  72 S7        29.54S
FORT BELVOIR   LGT RAIN  59  57  94 VRB2      29.55S
QUANTICO       LGT RAIN  68  58  70 W10       29.56S
FREDERICKSBRG* CLOUDY    73  59  62 SW9       29.55S
STAFFORD*      MOCLDY    64  32  30 CALM      29.60R
WARRENTON      MOCLDY    65  58  77 S3        29.55S
CULPEPER*      MOCLDY    66  55  68 SW6       29.56R
MANASSAS*      MOCLDY    63  57  82 S5        29.55S
LEESBURG*      LGT RAIN  64  61  88 CALM      29.55R
WINCHESTER     CLOUDY    64  45  48 NW10G17   29.59R
FRONT ROYAL*   CLOUDY    68  48  49 W6G17     29.58R
LURAY*         MOCLDY    68  52  56 W7        29.59R
$$

VAZ048-049-060>072-079>083-210400-
CENTRAL AND SOUTH CENTRAL VIRGINIA

CITY           SKY/WX    TMP DP  RH WIND       PRES   REMARKS
RICHMOND       CLOUDY    69  59  70 S17       29.62R
CHESTERFIELD*  NOT AVBL
PETERSBURG*    CLOUDY    68  61  79 SW6       29.65R
HANOVER        CLOUDY    70  60  70 S13G23    29.61R
TAPPAHANNOCK*  CLOUDY    72  57  58 S10       29.59F
QUINTON*       FAIR      68  61  77 SW6G17    29.62R
CHARLOTTSVILLE MOCLDY    58  54  86 W5        29.58R
GORDONSVILLE*  FAIR      60  54  80 CALM      29.57R
ORANGE*        PTCLDY    61  54  77 CALM      29.58R
LOUISA*        PTCLDY    70  61  73 S7        29.56F
BUMPASS*       FAIR      68  59  74 S9        29.57F
FARMVILLE*     CLEAR     69  58  68 SW14G20   29.61R
CREWE*         MOCLDY    67  57  69 S9        29.63R
FORT PICKETT*  MOCLDY    66  58  73 SW15G22   29.64S
CHASE CITY*    FAIR      67  63  86 CALM      29.65S
CLARKSVILLE*   MOCLDY    64  59  82 S10       29.66R
SOUTH HILL*    PTCLDY    63  59  86 S7        29.71F
LAWRENCEVILLE* FAIR      65  60  86 S6        29.65F
EMPORIA*       CLOUDY    63  57  82 CALM      29.68S
$$

VAZ088>098-210400-
SOUTHEAST VIRGINIA

CITY           SKY/WX    TMP DP  RH WIND       PRES   REMARKS
NORFOLK        CLOUDY    72  62  71 S17       29.65S
VIRGINIA BEACH CLOUDY    73  62  68 S15G22    29.66S
NORFOLK NAVAL  CLOUDY    76  63  64 S10G18    29.66F
WEST POINT*    CLOUDY    74  59  59 SW12G20   29.62F
SALUDA*        FAIR      72  61  66 SW13G22   29.60F
NEWPORT NEWS   CLOUDY    75  61  61 SW13G22   29.64F
LANGLEY AFB    CLOUDY    72  63  73 S17       29.62F
FORT EUSTIS    CLOUDY    72  61  68 S9        29.62F
WILLIAMSBURG*  CLOUDY    75  63  64 SW8       29.64S
HR EXEC AP*    FAIR      72  63  73 S12       29.67F
FRANKLIN*      CLOUDY   N/A N/A N/A S12G17    29.67S
WAKEFIELD      CLOUDY    71  61  70 S9G20     29.64F
$$

VAZ020-022-025-037-045-210400-
WEST CENTRAL AND SOUTHWEST VIRGINIA

CITY           SKY/WX    TMP DP  RH WIND       PRES   REMARKS
STAUNTON*      CLOUDY    60  53  77 W6        29.64R
WAYNESBORO*    CLOUDY    58  54  85 W5        29.62R
HOT SPRINGS VA MOCLDY    51  46  82 W10G16    29.68R
LYNCHBURG      CLOUDY    64  50  60 W8G21     29.64R
DANVILLE       PTCLDY    64  55  72 SW8       29.67R
SOUTH BOSTON*  FAIR      65  58  79 S14       29.64F
MARTINSVILLE   CLOUDY    60  60 100 CALM      29.69S
ROANOKE        MOCLDY    57  54  89 NW6       29.67S
BLACKSBURG     MOCLDY    55  47  76 NW13G21   29.73R
DUBLIN*        PTCLDY    57  49  73 W16G25    29.73R
MARION*        CLOUDY    57  44  62 W12G20    29.77R
HILLSVILLE*    PTCLDY    55  47  75 W14       29.73R
RICHLANDS*     HVY RAIN  48  44  85 NW16G29   29.79R
WISE*          LGT RAIN  46  39  76 W9        29.83R
ABINGDON*      RAIN      57  47  68 NW14G24   29.78R
$$

MDZ021>025-VAZ099-100-210400-
SOUTHERN MARYLAND AND THE DELMARVA PENINSULA

CITY           SKY/WX    TMP DP  RH WIND       PRES   REMARKS
PATUXENT RIVER CLOUDY    71  61  70 SW9       29.57F
BAY BRIDGE APT   N/A     59  55  88 S6        29.56F
LEONARDTOWN    CLOUDY    70  59  68 S9G18     29.59S
DOVER          CLOUDY    69  63  81 S13G18    29.53S
GEORGETOWN     CLOUDY    68  60  75 S15G22    29.60S
EASTON         CLOUDY    69  56  63 CALM      29.62R
CAMBRIDGE      CLOUDY    72  63  73 S8        29.58S
SALISBURY      CLOUDY    68  60  75 S9        29.60F
OCEAN CITY     CLOUDY    62  60  93 S8        29.63S
WALLOPS ISLAND CLOUDY    61  60  97 S14       29.63S
ACCOMACK*      CLOUDY    70  61  73 S10       29.63S
$$

NCZ012>017-030>032-210400-
NORTH CENTRAL AND EASTERN NORTH CAROLINA

CITY           SKY/WX    TMP DP  RH WIND       PRES   REMARKS
ROANOKE RAPIDS FAIR      68  63  83 S14G20    29.67F
RALEIGH        PTCLDY    67  62  84 S12       29.68S
ELIZABETH CITY CLOUDY    70  62  76 S13G21    29.70F
AHOSKIE*       MOCLDY    70  62  75 S8        29.69S
EDENTON*       CLOUDY    69  63  80 SW14      29.71S
CURRITUCK*     CLOUDY    71  59  66 S10       29.70F
KILL DEVIL HLS CLOUDY    70  64  79 SW10G18   29.72S
MANTEO         CLOUDY    70  64  83 SW18G24   29.74R
CAPE HATTERAS  CLOUDY    68  66  93 SW13G24   29.77S
TARBORO*       FAIR      72  63  74 S8        29.71S
GOLDSBORO      CLOUDY    69  64  83 S12       29.70S
WASHINGTON     CLOUDY    69  62  79 S9        29.73R
GREENVILLE     CLOUDY    70  63  78 SW13      29.75S
NEW BERN       CLOUDY    68  63  84 SW7       29.76F
WILMINGTON     CLOUDY    69  63  81 S10       29.77S
$$

VAZ048-210400-
ELSEWHERE

CITY           SKY/WX    TMP DP  RH WIND       PRES   REMARKS
HARRISBURG PA  CLOUDY    59  54  83 NW10      29.53F
BALTIMORE      CLOUDY    63  55  75 SE6       29.53F
ANNAPOLIS      CLOUDY    61  54  77 S6        29.55F
ANDREWS AFB    MOCLDY    59  57  93 S3        29.55F
PHILADELPHIA   CLOUDY    68  60  75 S13G20    29.55F
HENDERSON NC   PTCLDY    65  60  86 S12G17    29.67S
GREENSBORO     CLOUDY    64  56  75 W8        29.69R
ROCKY MOUNT    CLOUDY    70  62  76 S10       29.70R
$$

VAZ100-210400-
MARINE

STATION/POSITION TIME  TEMP    WIND        PRES    WAVE   SWELL
                       AIR SEA DIR/SP/G            HT/PER HT/PER
                 (UTC) (F)     (DEG/KT/KT) (MB)    (FT/S) (FT/S)
BRANDYWINE LGT   0200   55 51  190/ 21/ 22 1002.0R
CAPE MAY NJ      0200   55 57  150/ 12/ 18 1002.1R
LEWES DE         0200   67 52  180/  8/ 14 1002.0R
15NM E FENWICK I 0250   54 47              1002.5S   8/ 9
OCEAN-CITY-INLET 0200   55 50  210/ 16/ 18 1003.0F
WACHAPREAGUE VA  0200   63 64  220/ 11/ 15 1003.4R
THOMAS POINT MD  0300   62 54  170/ 11/ 12 1001.3F
GOOSES REEF MD   0300   68 57  220/  4/  8   N/A     1/ 3
COVE POINT MD    0200   65     190/ 15/ 16 1001.4R
SOLOMONS ISLAND  0200      58                N/A
BISHOPS HEAD MD  0200   68 67  190/ 18/ 23 1001.7R
PINEY POINT MD   0200          220/ 17/ 21   N/A
CAMBRIDGE MD     0200   71 59  180/  8/ 17 1001.6R
LEWISETTA VA     0200   73 65              1001.5R
RAPPAHANNOCK LGT 0200          180/ 19/ 20 1003.4R
STINGRAY PT      0300   69 59  210/ 14/ 17 1004.3F   2/ 2
YORK RVR RNG VA  0200   70     220/ 21/ 25 1002.7R
YORKTOWN VA      0200   74 61  220/ 12/ 19 1003.3R
DOMINION TERM VA 0200   70     210/ 13/ 14 1004.2R
KIPTOPEKE VA     0200      63  200/ 15/ 17   N/A
CHES BAY BRIDGE  0200   72 54  180/ 19/ 22 1003.6R
CAPE HENRY VA    0200   73     190/ 12/ 18 1003.1R
CHESAPEAKE LGHT  0200   63     190/ 26/ 27 1004.6R
WILLOUBY STN VA  0200   72     210/ 18/ 21 1004.7R
S CRANEY ISL VA  0200          190/  9/ 13 1004.4R
CAPE HENRY BUOY  0228      55                N/A     5/ 8   2/11
1ST LANDING BUOY 0300   68     200/ 16/ 17 1003.8F   3/ 4
OFFSHORE WE BUOY 0211      49                N/A     6/ 9   5/ 9
64NM E OF VA BCH 0250   62 58  200/ 19/ 23 1005.2S   7/ 8   5/ 8
DUCK PIER NC     0200   71 54  200/ 17/ 21 1005.2R
44056 DUCK FRF   0211      57                N/A     4/ 7   2/12
OREGON INLET NC  0200   68 68  190/ 19/ 21 1007.1R
HATTERAS NC      0200   71 69  200/ 13/ 18 1007.5R
DIAMOND SHLS NC  0250   75 75  210/ 21/ 27 1007.7F   6/ 6   2/ 9
CAPE LOOKOUT NC  0300   68     250/ 10/ 12 1008.4R
$$



USA.gov is the U.S. government's official web portal to all federal, state and local government web resources and services.